Regional Weather Roundup
Issued by NWS

Home | Current Version | Previous Version | Text Only | Print | Product List | Glossary Off
Versions: 1 2 3 4 5 6 7 8 9 10 11 12 13 14 15 16 17 18 19 20 21 22 23 24 25 26 27 28 29 30 31 32 33 34 35 36 37 38 39 40 41 42 43 44 45 46 47 48 49 50

000
ASUS45 KSLC 282010
RWRUT

UTAH REGIONAL WEATHER ROUNDUP
NATIONAL WEATHER SERVICE SALT LAKE CITY UT
100 PM MST WED JAN 28 2015

UTZ001>011-023>025-282100-

NORTHERN UTAH

CITY           SKY/WX    TMP DP  RH WIND       PRES   REMARKS
BRIGHAM CITY   CLOUDY    45  37  74 CALM      30.32F
HILL AFB       PTSUNNY   44  32  63 VRB2      30.30F
LOGAN          CLOUDY    42  38  85 CALM      30.30S
OGDEN          CLOUDY    45  37  73 CALM      30.30F
PROVO AIRPORT  CLOUDY    48  36  61 VRB3      30.29F
SALT LAKE CITY PTSUNNY   48  36  63 N7        30.30F
VERNAL         SUNNY     47  29  49 VRB3      30.24F
WENDOVER       CLOUDY    48  36  61 E5        30.31F
HEBER CITY     CLOUDY    41  34  75 CALM      30.28F
WEST JORDAN    CLOUDY    46  39  76 NW7       30.31F

$$

UTZ012>022-026-027-282100-

SOUTHERN/CENTRAL UTAH

CITY           SKY/WX    TMP DP  RH WIND       PRES   REMARKS
BLANDING       MOSUNNY   49  34  56 SW3       30.32F
BRYCE CANYON   SUNNY     43  29  57 CALM      30.28F
CEDAR CITY     SUNNY     50  32  50 E5        30.24F
DELTA          SUNNY     50  34  54 NW5       30.28F
HANKSVILLE     SUNNY     48  34  57 CALM      30.28F
MILFORD        SUNNY     51  34  52 VRB3      30.26F
MOAB/CYNLANDS  SUNNY     50  36  58 VRB5      30.24F
PRICE          CLOUDY    46  31  55 W3        30.26F
ST GEORGE      PTCLDY    54  41  62 CALM      30.27F

$$

REGIONAL REPORTS     COLORADO/ARIZONA

CITY           SKY/WX    TMP DP  RH WIND       PRES   REMARKS
CRAIG, CO      MOSUNNY   41  31  67 W10       30.24F
GRAND JUNCTION SUNNY     50  34  54 VRB3      30.25F
RIFLE          SUNNY     48  30  49 VRB3      30.24F
MONTROSE       MOSUNNY   52  29  41 NW6       30.26F
CORTEZ         SUNNY     54  27  35 NW10      30.25F
PAGE, AZ       NOT AVBL
GRAND CANYON   MOSUNNY   51  23  33 CALM      30.27F
KINGMAN          N/A     59  44  57 N8        30.21F
FLAGSTAFF      MOSUNNY   52  20  28 CALM      30.26F

$$

REGIONAL REPORTS    NEVADA/IDAHO/WYOMING

CITY           SKY/WX    TMP DP  RH WIND       PRES   REMARKS
LAS VEGAS, NV  PTSUNNY   59  45  59 S6        30.20F
ELY            SUNNY     47  32  56 VRB6      30.30F
ELKO           SUNNY     49  36  61 SW9       30.32F
POCATELLO, ID  CLOUDY    37  37 100 SW14      30.33S FOG     WCI  28
BURLEY         PTSUNNY   43  36  76 W10       30.31F
EVANSTON, WY   CLOUDY    37  31  78 W13       30.28S WCI  29
ROCK SPRINGS   MOSUNNY   42  30  62 W28       30.22R
KEMMERER       CLOUDY    34  32  93 W7        30.27R WCI  28

$$


USA.gov is the U.S. government's official web portal to all federal, state and local government web resources and services.